sat.trackr.live / text

‹ back to catalog

TIANQIN 1 (CAS-6)

NORAD 44879 · 2019-093A

PAYLOAD ACTIVE UNKNOWN

§ Identity

Operator
Country
PRC
Launch date
2019-12-20
Launch site
TAISC
Launch vehicle
Mass (kg)
RCS (m²)

External: N2YO · Heavens-Above · Gunter

§ Orbital elements

Epoch: 2026-09-13T04:49:22.568160Z

Period
96.27 min
Inclination
97.7783°
Eccentricity
0.0012552
Mean motion
14.95797788 rev/d
Perigee alt
571.2 km
Apogee alt
588.6 km
Semi-major
6,958.0 km
B*
1.6333e-4
RAAN
339.4065°
Arg perigee
115.5867°
Mean anomaly
244.6653°
Rev number
36,520

§ Raw data

TIANQIN 1 (CAS-6)1 44879U 19093A   26256.20095565  .00001766  00000+0  16333-3 0  99952 44879  97.7783 339.4065 0012552 115.5867 244.6653 14.95797788365204

JSON: /api/v1/satellites/44879 · /tle

For live sub-satellite position, see the globe view (requires WebGL).

§ Visibility from observer

Set your observer location to see the next 7 days of passes ≥ 10°. The values pass through the URL so the page stays shareable.

No JS? Fill the form by hand. The geolocation button needs JavaScript.

§ Radio — SatNOGS DB

ModeDescriptionDownlinkUplink
QPSK S-band telemetry 2.259 GHz

1 transmitter · refreshed weekly from db.satnogs.org